TimeAKST,TemperatureF,Dew PointF,Humidity,Sea Level PressureIn,VisibilityMPH,Wind Direction,Wind SpeedMPH,Gust SpeedMPH,PrecipitationIn,Events,Conditions,WindDirDegrees,DateUTC
12:16 AM,24.8,8.6,50,29.95,10.0,SE,8.1,-,N/A,,Mostly Cloudy,140,2012-12-25 09:16:00
12:36 AM,24.8,10.4,54,29.95,10.0,ESE,16.1,-,N/A,,Mostly Cloudy,120,2012-12-25 09:36:00
12:56 AM,26.6,10.4,51,29.93,10.0,ESE,18.4,24.2,N/A,,Mostly Cloudy,120,2012-12-25 09:56:00
1:16 AM,26.6,12.2,55,29.93,10.0,ESE,17.3,24.2,N/A,,Overcast,120,2012-12-25 10:16:00
1:36 AM,26.6,10.4,51,29.93,10.0,East,17.3,-,N/A,,Overcast,100,2012-12-25 10:36:00
1:56 AM,26.6,10.4,51,29.93,10.0,ESE,16.1,21.9,N/A,,Overcast,110,2012-12-25 10:56:00
2:16 AM,26.6,10.4,51,29.92,10.0,ESE,16.1,21.9,N/A,,Scattered Clouds,110,2012-12-25 11:16:00
2:36 AM,26.6,12.2,55,29.92,10.0,East,11.5,-,N/A,,Mostly Cloudy,100,2012-12-25 11:36:00
2:56 AM,26.6,10.4,51,29.93,10.0,South,5.8,-,N/A,,Overcast,190,2012-12-25 11:56:00
3:16 AM,26.6,14.0,59,29.92,10.0,NNE,4.6,-,N/A,,Overcast,30,2012-12-25 12:16:00
3:36 AM,26.6,12.2,55,29.91,10.0,ESE,5.8,-,N/A,,Overcast,110,2012-12-25 12:36:00
3:56 AM,28.4,10.4,47,29.90,10.0,ESE,11.5,18.4,N/A,,Overcast,110,2012-12-25 12:56:00
4:16 AM,26.6,12.2,55,29.89,10.0,ESE,12.7,-,N/A,,Overcast,110,2012-12-25 13:16:00
4:36 AM,26.6,10.4,51,29.90,10.0,North,3.5,16.1,N/A,,Partly Cloudy,10,2012-12-25 13:36:00
4:56 AM,26.6,12.2,55,29.89,10.0,East,11.5,-,N/A,,Clear,90,2012-12-25 13:56:00
5:16 AM,26.6,12.2,55,29.88,10.0,East,9.2,-,N/A,,Clear,100,2012-12-25 14:16:00
5:36 AM,26.6,10.4,51,29.88,10.0,ESE,10.4,-,N/A,,Mostly Cloudy,110,2012-12-25 14:36:00
5:56 AM,24.8,10.4,54,29.88,10.0,East,8.1,-,N/A,,Scattered Clouds,90,2012-12-25 14:56:00
6:16 AM,24.8,8.6,50,29.87,10.0,NNW,3.5,-,N/A,,Scattered Clouds,340,2012-12-25 15:16:00
6:36 AM,23.0,10.4,59,29.87,10.0,East,3.5,-,N/A,,Scattered Clouds,80,2012-12-25 15:36:00
6:56 AM,21.2,8.6,58,29.87,10.0,North,6.9,-,N/A,,Scattered Clouds,350,2012-12-25 15:56:00
7:16 AM,23.0,10.4,59,29.86,10.0,East,6.9,-,N/A,,Scattered Clouds,80,2012-12-25 16:16:00
7:36 AM,26.6,14.0,59,29.86,10.0,East,6.9,-,N/A,,Scattered Clouds,80,2012-12-25 16:36:00
7:56 AM,24.8,12.2,59,29.86,10.0,North,6.9,-,N/A,,Mostly Cloudy,350,2012-12-25 16:56:00
8:16 AM,24.8,12.2,59,29.86,10.0,Calm,Calm,-,N/A,,Mostly Cloudy,0,2012-12-25 17:16:00
8:36 AM,23.0,12.2,63,29.85,10.0,North,3.5,-,N/A,,Mostly Cloudy,10,2012-12-25 17:36:00
8:56 AM,24.8,12.2,59,29.85,10.0,Calm,Calm,-,N/A,,Mostly Cloudy,0,2012-12-25 17:56:00
9:16 AM,24.8,10.4,54,29.85,10.0,Calm,Calm,-,N/A,,Mostly Cloudy,0,2012-12-25 18:16:00
9:36 AM,24.8,12.2,59,29.85,10.0,Calm,Calm,-,N/A,,Mostly Cloudy,0,2012-12-25 18:36:00
9:56 AM,24.8,12.2,59,29.85,10.0,North,4.6,-,N/A,,Mostly Cloudy,360,2012-12-25 18:56:00
10:16 AM,23.0,10.4,59,29.85,10.0,NNW,8.1,-,N/A,,Mostly Cloudy,340,2012-12-25 19:16:00
10:36 AM,23.0,12.2,63,29.84,10.0,NNW,6.9,-,N/A,,Mostly Cloudy,340,2012-12-25 19:36:00
10:56 AM,23.0,12.2,63,29.84,10.0,North,4.6,-,N/A,,Mostly Cloudy,350,2012-12-25 19:56:00
11:16 AM,23.0,10.4,59,29.84,10.0,NNW,6.9,-,N/A,,Mostly Cloudy,330,2012-12-25 20:16:00
11:36 AM,24.8,12.2,59,29.84,10.0,North,6.9,-,N/A,,Mostly Cloudy,360,2012-12-25 20:36:00
11:56 AM,23.0,12.2,63,29.83,10.0,NNW,9.2,-,N/A,,Overcast,330,2012-12-25 20:56:00
12:16 PM,23.0,12.2,63,29.83,10.0,NNW,9.2,-,N/A,,Overcast,330,2012-12-25 21:16:00
12:36 PM,23.0,12.2,63,29.82,10.0,North,6.9,-,N/A,,Overcast,350,2012-12-25 21:36:00
12:56 PM,24.8,12.2,59,29.81,10.0,Calm,Calm,-,N/A,,Mostly Cloudy,0,2012-12-25 21:56:00
1:16 PM,26.6,14.0,59,29.79,10.0,ENE,5.8,-,N/A,,Mostly Cloudy,70,2012-12-25 22:16:00
1:36 PM,28.4,14.0,55,29.78,10.0,ESE,11.5,19.6,N/A,,Mostly Cloudy,110,2012-12-25 22:36:00
1:56 PM,30.2,14.0,51,29.77,10.0,ESE,17.3,21.9,N/A,,Scattered Clouds,110,2012-12-25 22:56:00
2:16 PM,30.2,12.2,47,29.76,10.0,SE,16.1,-,N/A,,Scattered Clouds,140,2012-12-25 23:16:00
2:36 PM,30.2,14.0,51,29.76,10.0,ESE,17.3,23.0,N/A,,Scattered Clouds,120,2012-12-25 23:36:00
2:56 PM,30.2,15.8,55,29.78,10.0,East,3.5,-,N/A,,Scattered Clouds,100,2012-12-25 23:56:00
3:16 PM,23.0,10.4,59,29.78,10.0,NNW,8.1,-,N/A,,Scattered Clouds,330,2012-12-26 00:16:00
3:36 PM,21.2,8.6,58,29.78,10.0,NNW,8.1,-,N/A,,Scattered Clouds,330,2012-12-26 00:36:00
3:56 PM,21.2,8.6,58,29.78,10.0,NNW,9.2,16.1,N/A,,Scattered Clouds,340,2012-12-26 00:56:00
4:16 PM,21.2,8.6,58,29.77,10.0,NNW,8.1,-,N/A,,Scattered Clouds,330,2012-12-26 01:16:00
4:36 PM,19.4,8.6,63,29.77,10.0,NW,9.2,-,N/A,,Scattered Clouds,320,2012-12-26 01:36:00
4:56 PM,19.4,8.6,63,29.77,10.0,NNW,9.2,-,N/A,,Scattered Clouds,340,2012-12-26 01:56:00
5:16 PM,19.4,8.6,63,29.77,10.0,NNW,9.2,-,N/A,,Scattered Clouds,330,2012-12-26 02:16:00
5:36 PM,19.4,6.8,58,29.77,10.0,NNW,8.1,-,N/A,,Scattered Clouds,340,2012-12-26 02:36:00
5:56 PM,19.4,8.6,63,29.77,10.0,NNW,8.1,-,N/A,,Scattered Clouds,330,2012-12-26 02:56:00
6:16 PM,19.4,6.8,58,29.77,10.0,NNW,6.9,-,N/A,,Clear,340,2012-12-26 03:16:00
6:36 PM,19.4,6.8,58,29.78,10.0,NNW,8.1,-,N/A,,Clear,330,2012-12-26 03:36:00
6:56 PM,19.4,8.6,63,29.78,10.0,NNW,6.9,-,N/A,,Clear,330,2012-12-26 03:56:00
7:16 PM,19.4,6.8,58,29.78,10.0,NNW,8.1,-,N/A,,Clear,340,2012-12-26 04:16:00
7:36 PM,17.6,6.8,63,29.78,10.0,NNW,6.9,-,N/A,,Clear,340,2012-12-26 04:36:00
7:56 PM,19.4,8.6,63,29.78,10.0,NNW,8.1,-,N/A,,Clear,340,2012-12-26 04:56:00
8:16 PM,17.6,8.6,68,29.78,10.0,NNW,8.1,-,N/A,,Clear,340,2012-12-26 05:16:00
8:36 PM,17.6,6.8,63,29.78,10.0,NNW,6.9,-,N/A,,Clear,340,2012-12-26 05:36:00
8:56 PM,19.4,8.6,63,29.79,10.0,NNW,8.1,-,N/A,,Clear,340,2012-12-26 05:56:00
9:16 PM,17.6,8.6,68,29.79,10.0,NNW,6.9,-,N/A,,Clear,340,2012-12-26 06:16:00
9:36 PM,19.4,8.6,63,29.80,10.0,NNW,8.1,-,N/A,,Clear,340,2012-12-26 06:36:00
9:56 PM,19.4,8.6,63,29.79,10.0,NNW,5.8,-,N/A,,Clear,340,2012-12-26 06:56:00
10:16 PM,17.6,6.8,63,29.80,10.0,NNW,8.1,-,N/A,,Clear,340,2012-12-26 07:16:00
10:36 PM,17.6,8.6,68,29.80,10.0,North,4.6,-,N/A,,Clear,360,2012-12-26 07:36:00
10:56 PM,17.6,8.6,68,29.81,10.0,NNW,8.1,-,N/A,,Clear,340,2012-12-26 07:56:00
11:16 PM,17.6,8.6,68,29.80,10.0,NNW,6.9,-,N/A,,Clear,340,2012-12-26 08:16:00
11:36 PM,17.6,8.6,68,29.81,10.0,NNW,8.1,-,N/A,,Clear,340,2012-12-26 08:36:00
11:56 PM,17.6,8.6,68,29.81,10.0,NNW,8.1,-,N/A,,Clear,340,2012-12-26 08:56:00